Regional Weather Roundup
Issued by NWS

Home | Current Version | Previous Version | Text Only | Print | Product List | Glossary On
Versions: 1 2 3 4 5 6 7 8 9 10 11 12 13 14 15 16 17 18 19 20 21 22 23 24 25 26 27 28 29 30 31 32 33 34 35 36 37 38 39 40 41 42 43 44 45 46 47 48 49 50
000
ASUS43 KLOT 230503
RWRIL

ILLINOIS REGIONAL WEATHER ROUNDUP
NATIONAL WEATHER SERVICE CHICAGO/ROMEOVILLE IL
1200 AM CDT WED MAY 23 2018

NOTE: "FAIR" INDICATES FEW OR NO CLOUDS BELOW 12,000 FEET WITH NO
SIGNIFICANT WEATHER AND/OR OBSTRUCTIONS TO VISIBILITY.

* THESE STATIONS ARE NOT UNDER NWS QUALITY CONTROL. THEY ALSO MAY NOT
  REPORT WEATHER SUCH AS PRECIPITATION OR FOG.

ILZ001-002-007-009-015-016-024-230600-
NORTHWEST ILLINOIS

CITY           SKY/WX    TMP DP  RH WIND       PRES   REMARKS
MOLINE         FAIR      62  59  90 E3        30.08S
STERLING*      FAIR      61  60  97 E5        30.11R
$$

ILZ003-004-008-010-011-017-018-230600-
NORTH CENTRAL ILLINOIS

CITY           SKY/WX    TMP DP  RH WIND       PRES   REMARKS
ROCKFORD       FAIR      55  54  96 CALM      30.11S
FREEPORT*      FAIR      57  56  99 CALM      30.12S
ROCHELLE*      FAIR      58  57  97 E3        30.11S
DE KALB*       FAIR      57  57  97 NE3       30.11S
$$

ILZ005-006-012>014-019>023-230600-
NORTHEAST ILLINOIS

CITY           SKY/WX    TMP DP  RH WIND       PRES   REMARKS
CHICAGO-OHARE  FAIR      54  51  90 CALM      30.09S
CHICAGO-MIDWAY FAIR      54  50  86 SE3       30.10R
AURORA         FAIR      56  56 100 CALM      30.10S FOG
LANSING*       FAIR      51  51 100 CALM      30.11S FOG
JOLIET*        FAIR      54  54 100 CALM      30.11S FOG
WAUKEGAN       FAIR      48  47  96 CALM      30.09F FOG
DUPAGE AIRPORT FAIR      54  54 100 CALM      30.09F FOG
KANKAKEE*      FAIR      56  54  94 CALM      30.11S
WHEELING       FAIR      54  52  93 CALM      30.11S
MORRIS*        FAIR      58  55  92 CALM      30.10R
NORTHERLY ISL    N/A     50  47  89 SE1         N/A
$$

LMZ740>746-230600-
SOUTHERN LAKE MICHIGAN

STATION/POSITION SKY/WX   TEMP    WIND        PRES    VSBY  WAVE
                          AIR SEA DIR/SP/G                  HT/PER
                          (F)     (DEG/KT/KT) (MB)    (MI)  (FT/S)
SOUTHERN BUOY              41 39  270/  2/  4 1019.7R         0
WILMETTE HARBOR            48 48  150/  2/  4   N/A           0
HARRISON CRIB              50     170/  5/  5   N/A
BURNHAM HARBOR             50     180/  2/  3   N/A
CALUMET HARBOR             50        CALM     1018.9F
BURNS HARBOR               52        CALM     1019.6S
MICHIGAN CITY              52     120/  1/  2   N/A
MICHIGAN CITY 6N           51 54  130/  2/  4   N/A           1
ST. JOSEPH                 51 53  300/  2/  2 1019.8R         1
$$

ILZ025>027-034>036-040-047-049-050-058-095>099-230600-
WEST-CENTRAL ILLINOIS

CITY           SKY/WX    TMP DP  RH WIND       PRES   REMARKS
QUINCY         CLEAR     70  61  73 E6        30.07S
GALESBURG*     FAIR      63  59  88 CALM      30.10R
MACOMB*        CLEAR     63  60  90 CALM      30.11R
JACKSONVILLE*  CLEAR     64  60  87 NE3       30.08S
PITTSFIELD*    CLEAR     67  65  91 CALM      30.09R
$$

ILZ028>032-037-038-041>044-048-051>054-059>061-230600-
CENTRAL ILLINOIS

CITY           SKY/WX    TMP DP  RH WIND       PRES   REMARKS
BLOOMINGTON    FAIR      62  57  83 NE6       30.11R
DECATUR        FAIR      63  57  81 N5        30.08S
PEORIA         FAIR      64  60  87 NE3       30.09R
LACON*         FAIR      61  60  96 CALM      30.09R
LINCOLN*       FAIR      65  59  83 CALM      30.09R
SPRINGFIELD    FAIR      65  60  84 NE3       30.08S
TAYLORVILLE    NOT AVBL
$$

ILZ033-039-045-046-055>057-062-063-230600-
EAST-CENTRAL ILLINOIS

CITY           SKY/WX    TMP DP  RH WIND       PRES   REMARKS
CHAMPAIGN      FAIR      65  59  81 NE9       30.09R
DANVILLE*      FAIR      60  58  93 NE3       30.07S
RANTOUL*       FAIR      65  60  83 NE8       30.09S
MATTOON        FAIR      66  59  78 N8        30.07R
$$

ILZ079-100>102-230600-
SOUTHWEST ILLINOIS

CITY           SKY/WX    TMP DP  RH WIND       PRES   REMARKS
BELLEVILLE     PTCLDY    71  65  83 CALM      30.05R
CAHOKIA*       CLOUDY    69  66  90 CALM      30.05S
SPARTA*        CLOUDY    70  68  96 CALM      30.06S
$$

ILZ064>066-069>071-074>076-080>082-084>086-088>090-092>094-230600-
SOUTH-CENTRAL ILLINOIS

CITY           SKY/WX    TMP DP  RH WIND       PRES   REMARKS
CARBONDALE     FAIR      67  65  93 CALM      30.05R
CAIRO*         FAIR      72  71  98 CALM      30.04S
EFFINGHAM*     FAIR      69  58  67 N3        30.08R
MT. VERNON       N/A     63  62  97 CALM      30.06R FOG
CENTRALIA*     PTCLDY    68  66  93 CALM      30.05S
SALEM*         FAIR      71  62  74 N5        30.06S
METROPOLIS*    FAIR      70  69  95 CALM      30.05S
$$

ILZ067-068-072-073-078-083-087-091-230600-
SOUTHEAST ILLINOIS

CITY           SKY/WX    TMP DP  RH WIND       PRES   REMARKS
LAWRENCEVILLE  FAIR      71  64  78 N7        30.05R
FLORA*         FAIR      73  61  68 N5        30.06R
FAIRFIELD*     FAIR      72  62  69 NW3       30.04S
HARRISBURG*    FAIR      70  66  85 CALM      30.04S
ROBINSON*      FAIR      67  62  83 N6        30.06R
CARMI*         FAIR      68  64  88 CALM      30.04R
$$

ABBREVIATIONS USED IN REMARKS
   TC - TEMPERATURE IN CELSIUS
  WCI - WIND CHILL INDEX
   HX - HEAT INDEX
  VSB - VISIBILITY
$$




USA.gov is the U.S. government's official web portal to all federal, state and local government web resources and services.